• In Uzbekistan
  • List of Countries
  • For 7 days
  • Water Temperature
  • Satellite Maps
  • Weather Map
  • Weather Widgets
  • user-avatar
    Login

    Hourly Weather Diapaga

    Today, 25 June, Tuesday

    Time Temperature Precipitation Wind Pressure Humidity
    00:00 +32°C° 0 mm 5 mps 734 mmHg 63%
    01:00 +29°C° 2.1 mm 6 mps 734 mmHg 66%
    02:00 +27°C° 2.1 mm 7 mps 734 mmHg 69%
    03:00 +24°C° 2.1 mm 8 mps 734 mmHg 72%
    04:00 +26°C° 0.1 mm 6 mps 734 mmHg 71%
    05:00 +26°C° 0.1 mm 5 mps 734 mmHg 71%
    06:00 +27°C° 0 mm 4 mps 735 mmHg 77%
    07:00 +28°C° 0 mm 4 mps 735 mmHg 72%
    08:00 +29°C° 0 mm 4 mps 736 mmHg 68%
    09:00 +32°C° 0 mm 4 mps 736 mmHg 63%
    10:00 +33°C° 0 mm 4 mps 736 mmHg 57%
    11:00 +34°C° 0 mm 4 mps 735 mmHg 52%
    12:00 +35°C° 0 mm 4 mps 735 mmHg 50%
    13:00 +36°C° 0 mm 3 mps 735 mmHg 46%
    14:00 +36°C° 0 mm 3 mps 734 mmHg 43%
    15:00 +37°C° 0 mm 2 mps 733 mmHg 39%
    16:00 +37°C° 0 mm 2 mps 734 mmHg 41%
    17:00 +36°C° 0 mm 2 mps 734 mmHg 42%
    18:00 +36°C° 0 mm 2 mps 734 mmHg 44%
    19:00 +35°C° 0 mm 2 mps 734 mmHg 45%
    20:00 +34°C° 0 mm 2 mps 734 mmHg 47%
    21:00 +32°C° 0 mm 2 mps 734 mmHg 49%
    22:00 +32°C° 0 mm 2 mps 735 mmHg 50%
    23:00 +33°C° 0 mm 3 mps 735 mmHg 51%

    Tomorrow, 26 June, Wednesday

    Time Temperature Precipitation Wind Pressure Humidity
    00:00 +33°C° 0 mm 3 mps 735 mmHg 52%
    01:00 +32°C° 0 mm 4 mps 735 mmHg 57%
    02:00 +30°C° 0 mm 4 mps 735 mmHg 62%
    03:00 +29°C° 0 mm 5 mps 734 mmHg 67%
    04:00 +29°C° 0 mm 5 mps 734 mmHg 70%
    05:00 +28°C° 0 mm 5 mps 735 mmHg 72%
    06:00 +28°C° 0 mm 5 mps 735 mmHg 74%
    07:00 +29°C° 0 mm 5 mps 735 mmHg 70%
    08:00 +30°C° 0 mm 5 mps 736 mmHg 65%
    09:00 +33°C° 0 mm 5 mps 737 mmHg 60%
    10:00 +34°C° 0 mm 4 mps 736 mmHg 54%
    11:00 +36°C° 0 mm 4 mps 736 mmHg 48%
    12:00 +38°C° 0 mm 3 mps 736 mmHg 42%
    13:00 +38°C° 0 mm 3 mps 735 mmHg 40%
    14:00 +39°C° 0 mm 3 mps 734 mmHg 38%
    15:00 +39°C° 0 mm 3 mps 734 mmHg 36%
    16:00 +38°C° 0 mm 3 mps 734 mmHg 38%
    17:00 +38°C° 0 mm 3 mps 733 mmHg 40%
    18:00 +37°C° 0 mm 3 mps 733 mmHg 41%
    19:00 +36°C° 0 mm 3 mps 734 mmHg 44%
    20:00 +35°C° 0 mm 3 mps 734 mmHg 47%
    21:00 +34°C° 0 mm 3 mps 735 mmHg 50%
    22:00 +34°C° 0.2 mm 3 mps 735 mmHg 53%
    23:00 +33°C° 0.2 mm 3 mps 735 mmHg 56%

    Day after tomorrow, 27 June, Thursday

    Time Temperature Precipitation Wind Pressure Humidity
    00:00 +32°C° 0.2 mm 4 mps 735 mmHg 59%
    01:00 +30°C° 0.1 mm 4 mps 735 mmHg 64%
    02:00 +30°C° 0.1 mm 5 mps 735 mmHg 68%
    03:00 +29°C° 0.1 mm 5 mps 735 mmHg 73%
    04:00 +28°C° 0.1 mm 5 mps 735 mmHg 74%
    05:00 +28°C° 0.1 mm 5 mps 735 mmHg 75%
    06:00 +28°C° 0.1 mm 5 mps 736 mmHg 77%
    07:00 +29°C° 0 mm 5 mps 736 mmHg 74%
    08:00 +29°C° 0 mm 5 mps 737 mmHg 70%
    09:00 +30°C° 0 mm 5 mps 737 mmHg 67%
    10:00 +32°C° 0 mm 5 mps 737 mmHg 64%
    11:00 +33°C° 0 mm 4 mps 736 mmHg 60%
    12:00 +34°C° 0 mm 4 mps 736 mmHg 57%
    13:00 +35°C° 0 mm 3 mps 735 mmHg 52%
    14:00 +36°C° 0 mm 2 mps 735 mmHg 48%
    15:00 +36°C° 0 mm 1 mps 734 mmHg 44%
    16:00 +36°C° 0 mm 1 mps 734 mmHg 44%
    17:00 +35°C° 0 mm 1 mps 734 mmHg 45%
    18:00 +35°C° 0 mm 1 mps 734 mmHg 46%
    19:00 +35°C° 0 mm 2 mps 734 mmHg 49%
    20:00 +34°C° 0 mm 2 mps 734 mmHg 52%
    21:00 +33°C° 0 mm 3 mps 735 mmHg 55%
    22:00 +33°C° 0.1 mm 3 mps 735 mmHg 56%
    23:00 +31°C° 0.1 mm 3 mps 735 mmHg 58%

    28 June, Friday

    Time Temperature Precipitation Wind Pressure Humidity
    00:00 +31°C° 0.1 mm 2 mps 735 mmHg 60%
    01:00 +30°C° 1.1 mm 2 mps 735 mmHg 65%
    02:00 +29°C° 1.1 mm 2 mps 735 mmHg 70%
    03:00 +28°C° 1.1 mm 2 mps 734 mmHg 74%
    04:00 +28°C° 0.1 mm 3 mps 735 mmHg 75%
    05:00 +28°C° 0.1 mm 3 mps 735 mmHg 76%
    06:00 +28°C° 0.1 mm 4 mps 735 mmHg 77%
    07:00 +29°C° 0 mm 4 mps 736 mmHg 73%
    08:00 +30°C° 0 mm 5 mps 736 mmHg 69%
    09:00 +32°C° 0 mm 5 mps 736 mmHg 65%
    10:00 +33°C° 0 mm 5 mps 736 mmHg 60%
    11:00 +35°C° 0 mm 5 mps 736 mmHg 55%
    12:00 +36°C° 0 mm 5 mps 736 mmHg 50%
    13:00 +36°C° 0 mm 4 mps 735 mmHg 48%
    14:00 +37°C° 0 mm 4 mps 734 mmHg 45%
    15:00 +37°C° 0 mm 3 mps 734 mmHg 43%
    16:00 +37°C° 0 mm 3 mps 734 mmHg 45%
    17:00 +36°C° 0 mm 3 mps 734 mmHg 47%
    18:00 +35°C° 0 mm 3 mps 734 mmHg 49%
    19:00 +34°C° 0 mm 3 mps 734 mmHg 53%
    20:00 +33°C° 0 mm 3 mps 735 mmHg 57%
    21:00 +31°C° 0 mm 3 mps 735 mmHg 61%
    22:00 +31°C° 0.2 mm 3 mps 735 mmHg 64%
    23:00 +30°C° 0.2 mm 3 mps 735 mmHg 67%

    29 June, Saturday

    Time Temperature Precipitation Wind Pressure Humidity
    00:00 +29°C° 0.2 mm 3 mps 735 mmHg 70%
    01:00 +29°C° 0.2 mm 3 mps 735 mmHg 70%
    02:00 +29°C° 0.2 mm 3 mps 735 mmHg 71%
    03:00 +29°C° 0.2 mm 2 mps 734 mmHg 72%
    04:00 +28°C° 1.1 mm 3 mps 735 mmHg 73%
    05:00 +28°C° 1.1 mm 3 mps 735 mmHg 74%
    06:00 +28°C° 1.1 mm 3 mps 736 mmHg 75%
    07:00 +28°C° 1.6 mm 3 mps 736 mmHg 75%
    08:00 +28°C° 1.6 mm 4 mps 737 mmHg 76%
    09:00 +28°C° 1.6 mm 4 mps 737 mmHg 76%
    10:00 +29°C° 0.6 mm 4 mps 737 mmHg 72%
    11:00 +30°C° 0.6 mm 3 mps 736 mmHg 68%
    12:00 +31°C° 0.6 mm 3 mps 736 mmHg 65%
    13:00 +32°C° 0 mm 2 mps 735 mmHg 60%
    14:00 +32°C° 0 mm 2 mps 735 mmHg 55%
    15:00 +33°C° 0 mm 1 mps 734 mmHg 50%
    16:00 +33°C° 0 mm 1 mps 734 mmHg 52%
    17:00 +32°C° 0 mm 1 mps 734 mmHg 54%
    18:00 +32°C° 0 mm 1 mps 734 mmHg 56%
    19:00 +31°C° 0 mm 1 mps 735 mmHg 59%
    20:00 +30°C° 0 mm 2 mps 735 mmHg 63%
    21:00 +30°C° 0 mm 2 mps 736 mmHg 66%
    22:00 +29°C° 0 mm 2 mps 736 mmHg 68%
    23:00 +29°C° 0 mm 2 mps 736 mmHg 69%

    30 June, Sunday

    Time Temperature Precipitation Wind Pressure Humidity
    00:00 +29°C° 0 mm 2 mps 736 mmHg 71%
    01:00 +28°C° 0 mm 2 mps 736 mmHg 72%
    02:00 +28°C° 0 mm 2 mps 736 mmHg 73%
    03:00 +28°C° 0 mm 2 mps 736 mmHg 74%
    04:00 +28°C° 0 mm 2 mps 736 mmHg 75%
    05:00 +28°C° 0 mm 3 mps 736 mmHg 76%
    06:00 +27°C° 0 mm 4 mps 736 mmHg 76%
    07:00 +29°C° 0 mm 4 mps 737 mmHg 72%
    08:00 +30°C° 0 mm 5 mps 737 mmHg 67%
    09:00 +32°C° 0 mm 5 mps 737 mmHg 63%
    10:00 +33°C° 0 mm 5 mps 737 mmHg 59%
    11:00 +35°C° 0 mm 5 mps 737 mmHg 54%
    12:00 +36°C° 0 mm 5 mps 736 mmHg 50%
    13:00 +37°C° 0 mm 4 mps 736 mmHg 47%
    14:00 +37°C° 0 mm 4 mps 735 mmHg 45%
    15:00 +38°C° 0 mm 3 mps 734 mmHg 43%
    16:00 +37°C° 0 mm 3 mps 734 mmHg 45%
    17:00 +36°C° 0 mm 3 mps 734 mmHg 47%
    18:00 +35°C° 0 mm 2 mps 734 mmHg 49%
    19:00 +35°C° 0.2 mm 2 mps 735 mmHg 53%
    20:00 +34°C° 0.2 mm 2 mps 735 mmHg 57%
    21:00 +33°C° 0.2 mm 3 mps 736 mmHg 61%
    22:00 +31°C° 0.3 mm 2 mps 736 mmHg 63%
    23:00 +31°C° 0.3 mm 2 mps 736 mmHg 65%
    Show more